Location: Unspecified
(35.7250°N, 0.0000°E)
Time: 10:58:22
(UTC+00:00)

Explorer 7 - Pass Details

Date: 24 June 2019
Orbit: 485 x 680 km, 50.3° (Epoch: 17 October)

Event Time Altitude Azimuth Distance (km) Brightness Sun altitude
Rises 13:52:06 0° 312° (NW) 2,960 10.7 63.3°
Reaches altitude 10° 13:54:27 10° 316° (NW) 2,070 10.1 62.8°
Maximum altitude 13:59:11 58° 36° (NE) 784 8.2 61.9°
Drops below altitude 10° 14:04:02 10° 115° (ESE) 2,111 9.7 61.0°
Sets 14:06:26 0° 120° (ESE) 3,023 10.4 60.5°
